Satellite: AO-27
Catalog number: 22825
Epoch time:      06136.52212873
Element set:    0403
Inclination:      098.2810 deg
RA of node:       119.9094 deg
Eccentricity:    0.0008576
Arg of perigee:   002.6903 deg
Mean anomaly:     357.4304 deg
Mean motion:   14.29172046 rev/day
Decay rate:       -4.8e-07 rev/day^2
Epoch rev:           65883
Checksum:              304

Satellite: IO-26
Catalog number: 22826
Epoch time:      06137.54730805
Element set:      92
Inclination:      098.2760 deg
RA of node:       122.0986 deg
Eccentricity:    0.0009287
Arg of perigee:   356.9631 deg
Mean anomaly:     003.1485 deg
Mean motion:   14.29416119 rev/day
Decay rate:        1.9e-07 rev/day^2
Epoch rev:           65905
Checksum:              312

Satellite: PO-28
Catalog number: 22829
Epoch time:      06136.50649464
Element set:    0376
Inclination:      098.2657 deg
RA of node:       122.3131 deg
Eccentricity:    0.0009409
Arg of perigee:   334.6350 deg
Mean anomaly:     025.4365 deg
Mean motion:   14.30107871 rev/day
Decay rate:      -1.03e-06 rev/day^2
Epoch rev:           65911
Checksum:              293

Satellite: TO-31
Catalog number: 25396
Epoch time:      06137.73210621
Element set:     529
Inclination:      098.4794 deg
RA of node:       199.1299 deg
Eccentricity:    0.0001779
Arg of perigee:   297.3177 deg
Mean anomaly:     062.7818 deg
Mean motion:   14.23703823 rev/day
Decay rate:       -8.2e-07 rev/day^2
Epoch rev:           40801
Checksum:              325

Satellite: GO-32
Catalog number: 25397
Epoch time:      06137.74572576
Element set:      15
Inclination:      098.4679 deg
RA of node:       195.9602 deg
Eccentricity:    0.0001000
Arg of perigee:   352.8634 deg
Mean anomaly:     007.2523 deg
Mean motion:   14.23104052 rev/day
Decay rate:       -7.9e-07 rev/day^2
Epoch rev:           40791
Checksum:              294

Satellite: UO-36
Catalog number: 25693
Epoch time:      06137.53379771
Element set:      42
Inclination:      064.5585 deg
RA of node:       336.8614 deg
Eccentricity:    0.0014938
Arg of perigee:   334.3401 deg
Mean anomaly:     025.6976 deg
Mean motion:   14.78596375 rev/day
Decay rate:       -8.0e-08 rev/day^2
Epoch rev:           38125
Checksum:              336

Satellite: MO-46
Catalog number: 26548
Epoch time:      06137.83120775
Element set:     494
Inclination:      064.5588 deg
RA of node:       325.6299 deg
Eccentricity:    0.0049890
Arg of perigee:   251.5240 deg
Mean anomaly:     108.0388 deg
Mean motion:   14.82966897 rev/day
Decay rate:        2.7e-07 rev/day^2
Epoch rev:           30490
Checksum:              347

Satellite: NO-44
Catalog number: 26931
Epoch time:      06136.86407223
Element set:    0306
Inclination:      067.0522 deg
RA of node:       088.3594 deg
Eccentricity:    0.0007303
Arg of perigee:   261.5538 deg
Mean anomaly:     098.4752 deg
Mean motion:   14.29439609 rev/day
Decay rate:       1.86e-06 rev/day^2
Epoch rev:           24145
Checksum:              311

Satellite: SO-50
Catalog number: 27607
Epoch time:      06137.64320963
Element set:      21
Inclination:      064.5588 deg
RA of node:       205.8014 deg
Eccentricity:    0.0046593
Arg of perigee:   158.1149 deg
Mean anomaly:     202.1945 deg
Mean motion:   14.71138024 rev/day
Decay rate:       1.41e-06 rev/day^2
Epoch rev:           18293
Checksum:              285

Satellite: CO-57
Catalog number: 27848
Epoch time:      06136.57646752
Element set:    0727
Inclination:      098.7189 deg
RA of node:       144.6318 deg
Eccentricity:    0.0009868
Arg of perigee:   152.8164 deg
Mean anomaly:     207.3530 deg
Mean motion:   14.20262470 rev/day
Decay rate:        2.9e-07 rev/day^2
Epoch rev:           14915
Checksum:              332

Satellite: AO-51
Catalog number: 28375
Epoch time:      06137.58377310
Element set:     532
Inclination:      098.1673 deg
RA of node:       191.0128 deg
Eccentricity:    0.0084000
Arg of perigee:   301.0418 deg
Mean anomaly:     058.2545 deg
Mean motion:   14.40517990 rev/day
Decay rate:        3.7e-07 rev/day^2
Epoch rev:            9875
Checksum:              296

Satellite: XO-53
Catalog number: 28894
Epoch time:      06136.77543283
Element set:     548
Inclination:      098.1697 deg
RA of node:       035.5845 deg
Eccentricity:    0.0016597
Arg of perigee:   272.6161 deg
Mean anomaly:     087.3148 deg
Mean motion:   14.59467198 rev/day
Decay rate:       2.03e-06 rev/day^2
Epoch rev:            2939
Checksum:              357

Satellite: CO-56
Catalog number: 28941
Epoch time:      06136.97471237
Element set:    0095
Inclination:      098.1779 deg
RA of node:       152.9538 deg
Eccentricity:    0.0284984
Arg of perigee:   217.7253 deg
Mean anomaly:     140.3696 deg
Mean motion:   15.23470411 rev/day
Decay rate:     1.0891e-04 rev/day^2
Epoch rev:           01279
Checksum:              344

/EX
SB KEPS @ AMSAT  $ORB06137.W
Orbital Elements  06137.WEATHER

HR AMSAT ORBITAL ELEMENTS FOR WEATHER SATELLITES
FROM WA5QGD FORT WORTH,TX May 17, 2006
Send SUBSCRIBE KEPS/UNSUBSCRIBE KEPS to majordomo@amsat.org only
BID: ORB06137.W
TO ALL RADIO AMATEURS BT

Satellite: NOAA-10
Catalog number: 16969
Epoch time:      06136.59840163
Element set:    0210
Inclination:      098.7595 deg
RA of node:       148.1658 deg
Eccentricity:    0.0011549
Arg of perigee:   241.5111 deg
Mean anomaly:     118.4886 deg
Mean motion:   14.27293633 rev/day
Decay rate:       -9.4e-07 rev/day^2
Epoch rev:           02265
Checksum:              314

